GEFSCGP_500_meanwind_252.txt.gz
Wind_Speed
21 20 19 16 13 12 10 8 7 5 3 1 1 2 4 5 6 8 10 10 11 11 11 10 10 11 11 10 10 9 10 10 9 9 9 8 8 7 6 5 5 3 4 4
23 23 21 19 17 15 13 11 9 8 5 4 3 2 2 3 5 7 8 9 9 9 9 9 9 10 10 10 9 9 8 8 8 8 8 8 7 7 6 5 4 3 2 2
25 25 23 22 20 18 16 13 12 10 7 6 5 4 3 3 3 5 7 7 8 9 8 8 9 9 9 10 9 8 8 7 7 7 7 7 7 6 6 5 4 3 3 3
28 27 25 24 22 20 18 17 15 13 10 9 7 6 6 5 4 5 5 6 7 7 7 7 7 8 9 9 8 8 8 7 6 6 6 6 6 6 5 5 5 4 4 4
31 29 27 26 24 22 21 19 17 15 13 12 10 8 9 7 6 5 5 5 6 7 7 6 7 7 8 8 8 7 7 7 7 6 6 6 6 6 6 5 5 5 5 4
31 30 29 28 26 25 24 21 19 17 15 15 13 11 10 9 7 6 6 6 6 6 6 6 6 7 7 8 8 7 6 6 6 6 7 7 7 7 7 6 6 5 5 5
32 32 31 29 28 27 25 23 20 19 18 17 16 15 12 11 9 8 7 7 6 6 6 7 7 7 7 8 8 7 7 7 7 7 7 6 7 7 8 8 8 7 7 6
32 32 32 31 29 28 26 24 22 19 18 17 18 17 14 13 11 10 10 8 7 7 7 7 8 8 8 8 8 8 8 7 8 8 8 7 7 8 9 9 9 9 9 8
32 32 32 32 31 30 28 27 24 21 19 18 19 19 16 15 14 12 11 10 10 9 8 9 9 9 9 9 10 9 9 9 9 9 9 9 10 10 10 10 10 10 10 10
32 33 32 32 32 32 30 28 26 24 22 20 20 20 18 16 15 14 13 12 11 10 10 10 10 10 10 10 10 10 9 10 10 9 10 11 11 12 11 11 11 10 10 11
32 33 32 33 33 32 31 29 28 27 25 21 19 20 19 17 16 16 15 14 13 12 12 12 11 11 11 10 10 10 9 10 10 11 12 12 12 12 12 11 11 10 11 11
32 32 32 32 32 32 31 30 29 28 27 25 21 20 21 18 17 17 16 15 14 14 13 13 12 12 12 11 10 10 10 11 11 12 13 13 13 12 11 11 11 11 11 12
32 32 31 31 32 32 32 31 30 28 27 25 22 22 23 20 19 18 18 17 16 15 14 14 14 13 12 12 11 11 11 12 12 13 14 14 14 12 11 11 12 12 13 14
32 32 31 30 30 32 32 31 30 29 28 26 24 23 24 22 20 19 19 18 17 16 16 15 15 14 14 13 13 13 13 13 13 13 14 14 14 13 12 12 13 14 15 15
32 32 32 31 31 31 32 31 31 30 29 26 25 25 24 22 20 19 18 18 17 17 17 16 16 15 15 15 15 15 15 15 14 14 14 15 16 15 14 14 15 15 16 16
32 32 32 32 32 31 32 32 31 31 29 28 26 26 24 22 20 20 20 19 18 18 18 18 17 17 17 17 16 16 16 16 16 16 16 16 17 17 16 16 16 17 17 18
32 32 31 31 32 32 33 32 31 31 30 29 28 27 26 24 22 21 20 20 20 19 19 19 19 18 18 18 18 18 18 17 17 17 18 18 18 19 19 18 18 19 19 19
33 32 31 30 31 33 33 32 31 31 31 30 29 28 27 25 24 23 22 21 21 21 20 21 21 21 20 20 20 20 19 20 20 20 20 20 20 20 21 20 20 20 20 20
33 32 31 31 31 32 33 32 31 31 31 30 30 29 28 26 25 24 24 23 23 23 22 22 23 22 22 21 21 21 21 21 21 22 21 21 21 21 22 21 21 21 21 21
33 33 32 32 31 32 33 31 30 30 31 31 30 29 28 27 26 25 25 24 24 24 23 23 22 22 22 22 22 21 22 22 22 22 22 22 23 22 22 22 22 22 22 22
32 33 33 33 32 32 33 32 31 31 30 30 30 30 29 28 27 27 26 25 25 25 24 24 23 22 22 22 22 21 22 22 23 24 24 24 24 23 23 24 24 23 23 22
32 33 34 33 33 33 33 31 31 31 30 30 30 30 30 29 29 27 27 26 26 26 26 25 24 24 23 23 22 23 23 23 23 23 24 24 23 23 24 24 24 24 23 23
33 33 34 35 34 34 33 32 31 31 31 30 30 30 30 30 29 28 27 27 27 27 28 27 26 25 25 24 23 24 23 23 23 22 23 24 23 23 23 23 23 23 23 23
33 33 34 34 34 34 33 33 32 32 32 31 31 31 31 30 30 29 29 28 28 28 28 28 28 27 26 25 24 24 23 23 22 22 23 23 22 22 22 22 22 22 22 22
33 33 34 34 34 34 34 33 33 32 32 31 31 32 31 31 30 29 28 28 28 28 28 28 27 26 25 25 24 24 24 23 23 23 23 23 23 23 23 23 22 22 23 23
32 32 33 35 35 35 35 34 34 33 32 32 31 31 31 31 30 30 29 29 28 28 28 28 27 26 26 26 25 25 24 24 24 24 24 24 24 24 23 23 23 23 23 24

GEFSCGP_500_meanwind_258.txt.gz
Wind_Speed
16 15 14 11 10 10 9 8 8 8 7 6 4 7 9 8 9 10 12 12 12 13 13 13 12 12 12 12 12 12 12 12 12 11 10 10 10 10 9 8 7 7 6 6
18 17 15 13 13 13 11 9 8 9 10 7 4 6 9 7 9 10 11 11 12 12 12 13 13 12 12 12 11 11 11 11 11 11 11 11 11 10 10 9 8 8 7 7
20 18 17 17 16 15 14 12 10 11 11 7 5 7 10 8 9 9 10 10 10 11 12 12 12 12 11 11 11 10 10 10 10 10 10 10 10 10 10 9 8 7 7 7
22 21 21 20 19 17 16 14 12 11 11 9 8 10 13 10 7 8 8 9 9 10 11 11 10 11 11 11 10 9 9 9 9 9 9 10 9 9 9 9 8 8 7 7
23 23 23 23 21 20 18 15 14 13 12 11 10 11 14 13 11 9 7 7 8 9 10 10 10 10 10 10 10 10 9 8 8 9 9 9 9 9 9 9 9 8 8 8
25 24 24 24 23 22 20 18 15 14 13 15 12 12 15 15 13 11 7 7 8 8 8 9 9 9 10 10 9 9 10 10 9 9 9 9 10 10 9 9 9 9 9 9
25 25 25 25 24 23 22 19 17 16 15 15 13 15 17 16 14 12 10 8 8 8 8 8 9 9 9 9 9 9 9 9 10 10 10 10 10 10 10 11 10 11 11 11
24 25 25 24 24 24 24 22 20 18 14 12 14 17 17 18 17 15 13 11 10 9 9 9 9 9 9 9 9 9 9 9 9 10 10 10 10 11 11 12 12 12 12 12
23 23 23 25 25 25 24 24 21 19 17 16 16 18 18 18 17 16 14 11 11 12 11 10 10 9 9 9 9 9 9 9 10 10 11 10 10 10 11 12 13 14 13 12
27 24 23 25 26 27 26 23 22 22 20 19 18 18 18 18 17 17 16 13 12 12 12 12 12 11 10 9 10 10 9 9 10 10 11 12 11 11 12 13 13 13 13 13
29 27 25 24 26 26 26 26 25 22 22 20 18 17 17 19 18 17 16 15 15 14 13 14 13 12 11 11 10 11 10 10 10 11 11 12 12 12 13 13 13 13 13 13
30 29 26 25 26 25 25 26 26 26 26 23 20 20 19 19 19 18 18 17 17 15 14 14 14 14 13 11 11 11 11 11 12 12 12 13 13 13 13 13 13 14 14 14
31 31 29 26 26 26 27 27 27 27 26 25 22 22 21 20 19 19 20 20 19 18 17 16 16 15 14 13 13 12 13 13 13 12 13 13 14 14 14 14 14 14 15 15
32 34 32 28 25 25 26 26 27 27 27 25 24 23 22 21 21 22 21 20 21 20 20 18 17 16 16 15 14 14 14 14 14 14 14 14 15 15 15 15 15 15 16 16
33 33 34 31 29 27 26 26 26 28 29 27 24 23 23 23 23 24 23 23 22 21 21 20 18 17 17 16 16 16 16 16 16 16 16 16 16 17 16 16 16 16 16 17
33 34 34 33 30 30 29 28 27 28 28 28 25 25 25 26 26 25 24 23 22 22 21 20 19 19 18 17 17 18 18 17 17 17 17 17 18 18 19 18 18 19 19 19
33 33 34 33 30 29 32 30 30 29 27 27 26 28 29 29 30 28 24 23 23 22 22 21 21 21 20 20 20 19 19 19 19 19 19 19 20 20 20 20 21 21 21 21
34 34 34 33 32 33 32 30 29 30 30 30 30 31 32 31 31 29 27 26 26 23 23 22 22 22 21 21 22 21 21 21 21 22 22 22 21 22 22 22 22 22 23 22
35 35 34 33 34 34 32 32 31 31 32 31 32 32 31 31 31 30 29 28 27 26 24 23 23 23 23 23 23 23 23 23 23 23 23 23 23 23 23 23 23 24 23 23
35 36 36 35 34 34 33 31 30 31 32 33 33 32 31 32 31 30 29 28 27 27 26 25 25 24 24 24 24 24 24 24 23 23 24 24 24 24 24 25 25 25 25 24
34 35 36 35 35 33 30 31 30 33 34 33 33 33 31 32 32 31 31 29 28 27 27 26 25 25 24 25 25 25 24 24 24 24 24 25 25 25 25 25 25 26 26 25
33 35 36 34 34 33 33 31 31 33 33 33 33 33 33 33 33 32 31 31 29 28 28 27 26 25 25 25 26 25 25 25 25 25 25 25 25 25 25 26 26 26 25 25
33 34 34 35 35 35 34 34 35 33 34 33 34 34 34 34 34 33 32 30 29 28 27 28 28 27 27 27 26 26 26 26 26 26 26 26 26 26 26 26 26 26 25 25
34 35 34 35 35 36 35 36 35 35 35 35 34 33 34 34 34 33 32 31 29 28 28 28 29 29 28 27 27 26 27 27 27 26 26 26 27 27 27 27 26 26 26 26
34 34 35 36 34 34 35 37 36 36 35 34 34 34 35 35 34 34 34 32 31 30 30 30 30 30 29 28 28 28 28 28 28 27 28 28 28 28 28 28 28 27 26 26
33 33 35 37 36 35 34 35 34 34 34 34 35 36 36 36 35 34 33 33 33 33 32 31 30 30 30 29 29 29 29 28 28 28 29 29 29 29 29 29 28 27 27 27

GEFSCGP_500_meanwind_264.txt.gz
Wind_Speed
19 18 16 13 11 9 8 6 3 2 4 6 7 9 8 9 10 11 11 12 13 13 13 13 13 13 13 13 14 13 13 12 12 12 12 11 10 10 9 8 8 7 6 6
21 19 16 15 13 12 11 8 5 4 5 6 6 7 7 7 8 9 9 10 11 11 12 12 11 12 12 12 12 12 12 12 11 11 11 10 10 9 8 8 8 7 7 6
22 19 18 17 16 15 13 11 8 6 6 6 7 8 7 6 6 7 7 8 8 9 11 12 12 11 11 11 11 11 10 10 10 10 10 10 10 10 9 9 8 8 7 7
23 21 21 20 19 17 15 13 11 10 10 9 9 9 8 7 6 7 7 7 8 8 10 11 11 11 10 9 9 10 10 9 9 9 9 9 10 9 9 8 7 7 7 6
24 23 24 22 20 19 17 16 14 13 13 11 11 10 9 9 8 8 9 7 7 7 8 10 10 10 10 9 8 8 9 9 9 9 9 9 9 8 8 7 7 7 6 6
26 25 25 24 22 21 19 19 17 17 15 13 12 12 10 9 7 8 9 7 6 7 7 8 8 8 8 8 8 7 8 8 8 8 8 8 8 8 7 7 7 7 6 6
28 27 27 25 25 24 23 22 21 20 18 16 13 13 10 9 8 8 8 6 7 6 5 6 7 7 8 8 7 6 7 8 8 8 8 7 8 8 8 7 7 7 6 6
29 29 27 27 27 26 26 25 24 23 21 18 16 15 12 9 9 10 8 7 7 5 5 5 5 6 6 7 7 7 7 7 8 8 8 7 8 8 8 8 7 8 7 7
29 28 28 28 27 26 26 27 25 24 23 21 18 16 13 12 11 12 10 8 7 6 5 5 6 6 6 7 8 8 8 7 7 8 8 7 8 8 8 8 8 8 8 7
29 28 28 28 27 27 26 25 27 27 25 24 22 19 16 14 12 13 12 10 8 7 6 6 6 7 8 8 8 8 8 8 8 8 9 8 8 8 8 9 9 9 8 8
29 29 29 29 30 28 27 28 28 28 28 26 25 21 16 15 14 13 12 11 9 7 7 6 7 8 8 9 9 8 8 8 8 8 9 9 8 9 9 9 9 9 9 10
29 31 31 31 30 29 27 27 28 29 29 28 26 23 18 16 14 13 14 14 11 9 8 8 8 9 10 10 9 9 9 9 8 9 10 10 9 9 10 10 10 10 11 11
30 32 31 31 31 32 30 28 28 29 29 29 28 25 22 19 16 16 15 15 13 11 11 11 10 11 11 11 10 9 10 10 9 10 10 10 10 11 11 11 11 11 12 12
32 33 33 32 31 33 33 30 29 30 31 30 28 26 24 21 20 18 17 16 15 15 15 14 12 12 12 11 10 10 10 11 11 11 11 11 12 12 12 12 12 12 12 12
34 34 33 32 31 32 33 32 30 31 31 32 29 28 26 24 23 21 19 18 17 16 16 15 15 15 14 13 12 11 11 12 12 12 13 13 13 12 13 13 13 13 13 14
35 36 35 33 33 33 33 33 32 32 32 32 31 29 27 25 24 23 22 21 19 18 18 18 18 17 16 14 13 13 13 13 14 14 14 14 14 14 14 14 14 14 14 15
35 35 35 35 35 35 35 34 33 33 33 33 32 30 28 27 26 25 24 23 21 20 19 20 20 19 18 17 16 16 16 15 16 16 15 15 16 16 16 15 15 16 16 16
35 35 35 35 35 37 35 35 35 34 35 35 34 31 31 29 28 28 27 26 25 24 22 22 22 21 20 19 19 19 19 18 18 17 17 17 17 17 17 17 17 17 18 18
36 35 36 36 36 36 35 34 34 34 34 35 35 34 33 32 30 30 28 28 27 26 25 24 24 24 23 22 22 22 21 21 20 20 19 19 18 18 18 18 19 19 19 19
36 36 37 37 37 36 35 34 34 34 34 35 35 35 34 33 32 31 29 28 28 28 27 26 26 26 26 24 24 23 23 23 22 21 21 21 20 19 19 20 20 20 20 21
36 37 36 37 37 36 34 34 34 34 34 34 35 36 35 34 33 32 31 30 30 30 29 27 27 26 26 25 25 24 24 23 23 23 22 21 21 21 21 21 22 21 21 21
37 37 35 35 37 37 36 35 35 34 34 34 35 35 35 34 33 32 31 30 30 30 30 28 28 27 27 27 27 26 25 25 24 24 23 22 22 22 22 22 22 22 22 23
38 38 37 36 36 36 36 37 35 34 34 34 35 35 35 34 33 33 32 31 31 31 32 31 29 28 28 28 27 27 27 26 25 25 24 23 23 24 24 24 23 24 24 24
38 38 37 37 36 36 36 37 36 36 34 34 34 35 35 34 34 33 33 33 33 33 33 32 29 28 28 28 28 28 27 26 25 25 25 25 26 26 25 25 25 25 25 25
37 38 37 36 36 36 36 36 35 35 35 35 36 36 35 34 33 34 34 34 34 34 34 32 31 30 29 28 29 29 28 27 26 27 27 27 27 26 26 26 27 26 25 25
35 37 37 37 36 36 35 35 34 34 35 34 35 35 35 34 34 34 34 34 34 33 32 31 31 30 30 30 30 30 29 28 28 28 28 28 28 27 27 26 27 27 26 26

GEFSCGP_500_meanwind_270.txt.gz
Wind_Speed
20 19 18 16 14 12 10 8 6 3 1 1 4 6 7 8 11 12 12 12 12 12 12 12 12 12 12 12 12 11 10 10 10 10 9 9 9 9 8 7 6 6 6 5
22 20 19 18 17 15 13 11 9 7 5 2 1 2 4 6 8 9 10 11 10 10 10 10 10 11 12 12 11 11 11 11 10 9 9 9 8 8 8 8 6 6 5 5
23 21 21 20 18 16 15 14 11 9 7 4 2 1 2 3 5 6 8 9 10 10 9 10 9 10 10 11 11 10 10 11 10 9 9 8 8 7 7 7 7 6 6 5
25 24 23 22 20 18 17 15 14 12 11 8 5 4 2 3 3 5 6 7 8 8 8 9 8 8 8 9 9 10 10 10 10 9 9 8 7 7 7 7 7 6 7 6
28 26 26 24 22 21 19 18 16 15 14 12 9 7 4 3 3 4 5 6 7 7 6 7 8 7 7 8 9 9 9 9 10 9 9 8 7 6 6 7 6 6 6 6
30 29 28 26 24 24 22 21 19 18 18 16 12 10 7 5 5 5 5 5 6 6 6 6 7 7 7 8 8 8 8 8 9 9 9 8 8 7 7 7 7 6 6 6
31 31 30 29 27 26 25 24 23 22 21 18 15 13 9 7 7 7 7 6 6 5 5 4 5 5 6 6 7 7 7 8 8 8 8 8 8 8 7 7 7 6 5 5
32 31 30 30 29 28 28 26 25 24 22 20 18 16 12 10 9 9 8 7 6 6 5 4 4 4 5 5 6 6 6 7 7 7 7 7 7 7 7 7 6 5 5 6
33 31 30 30 30 30 30 28 27 26 25 24 22 19 16 13 12 12 10 8 7 6 5 4 3 3 4 4 5 6 6 6 7 7 7 7 7 7 7 7 6 6 6 7
34 33 32 32 31 32 31 30 30 29 28 26 25 22 19 16 14 13 11 8 8 7 6 5 4 4 4 4 5 5 6 6 7 7 7 7 7 7 7 7 7 7 7 8
33 34 34 34 34 33 33 33 32 31 30 28 27 24 20 17 16 15 13 10 9 8 8 7 6 6 6 6 6 6 6 6 7 7 7 8 8 8 7 7 7 8 8 9
32 34 34 35 35 35 35 34 33 33 31 30 29 25 22 20 18 18 16 13 11 11 10 9 8 7 7 7 6 7 7 7 7 7 8 8 9 9 9 8 8 9 9 10
33 34 34 35 36 36 36 35 34 33 32 31 30 27 24 22 21 20 18 16 15 14 13 11 11 10 9 8 8 8 8 8 8 8 9 9 10 9 9 10 10 11 11 11
33 35 35 35 35 35 35 35 34 34 33 32 30 28 26 24 23 21 19 19 17 16 15 14 13 12 11 10 10 10 10 10 10 10 10 10 11 11 11 11 11 12 12 12
35 35 35 35 34 35 35 35 34 34 33 33 31 30 27 25 24 23 21 20 19 18 17 16 15 15 14 13 13 12 12 12 12 11 12 12 12 12 13 13 13 12 13 13
35 36 36 36 35 35 35 35 34 33 33 33 33 31 29 28 26 24 23 22 21 20 19 17 16 16 16 15 15 14 14 13 14 14 14 14 14 14 15 14 14 14 14 15
36 37 37 36 36 35 36 35 35 34 34 34 34 32 31 30 28 27 25 24 22 21 20 18 18 17 17 17 17 16 16 16 16 16 16 16 16 16 16 16 16 16 16 17
35 36 37 37 36 37 35 33 34 34 34 34 34 34 33 32 29 27 26 25 23 22 21 21 21 20 20 19 18 18 18 19 18 18 18 18 18 18 18 18 17 17 18 18
34 36 37 37 37 37 35 34 33 33 34 34 33 33 33 32 31 29 27 25 24 24 25 24 23 22 22 22 21 20 21 21 21 21 20 20 19 19 19 18 18 19 19 20
34 35 37 37 36 36 34 34 33 34 34 33 33 32 32 32 32 30 29 28 27 27 27 26 26 25 24 24 23 22 22 23 23 23 22 22 21 21 21 20 21 21 21 22
34 35 36 37 37 37 35 34 34 34 33 33 33 32 32 33 32 30 30 30 29 29 28 28 28 27 27 26 26 24 24 24 24 24 24 24 24 24 23 22 23 23 23 23
35 36 35 35 36 37 35 35 35 34 32 32 33 33 33 33 33 32 31 31 30 29 28 28 28 28 28 27 26 25 25 25 24 24 25 25 25 25 24 24 25 25 25 25
35 36 36 36 36 35 35 35 34 33 33 33 32 32 34 34 33 33 33 31 30 29 29 29 28 29 29 28 26 26 26 26 25 25 26 26 26 26 26 26 27 26 26 26
36 35 35 36 35 35 36 35 34 33 33 34 34 33 33 33 33 33 32 32 31 30 30 29 29 29 29 28 28 28 28 27 27 26 26 27 28 27 27 28 28 28 27 28
35 35 35 35 35 36 36 36 35 34 34 34 34 33 33 33 33 33 33 33 32 32 31 30 30 30 29 28 29 30 29 28 28 28 28 29 29 29 29 28 28 28 28 28
34 34 36 35 35 36 36 37 36 35 32 32 33 33 33 33 32 33 33 34 33 33 32 31 31 31 31 30 29 30 30 29 29 30 31 31 31 31 30 28 28 28 28 28

GEFSCGP_500_meanwind_276.txt.gz
Wind_Speed
17 16 14 13 11 10 9 7 5 3 1 0 2 3 4 5 6 8 9 10 11 11 11 10 10 10 10 9 9 9 10 10 10 10 9 8 8 7 7 7 6 5 5 5
19 19 17 15 13 12 10 9 7 6 3 2 0 1 3 4 5 6 7 8 9 9 9 9 9 9 9 8 8 8 8 9 9 9 9 8 7 7 6 6 6 6 5 4
21 20 19 18 16 14 12 10 10 8 6 4 3 2 3 4 4 5 6 6 7 8 8 8 7 8 8 8 7 7 7 8 8 8 8 8 7 6 6 5 5 5 5 5
24 23 22 20 18 15 14 12 12 10 8 6 5 4 5 4 4 4 4 5 6 6 6 6 6 6 7 7 7 7 7 7 8 7 7 7 7 6 6 5 5 5 5 4
25 25 23 22 20 18 17 15 13 12 10 9 8 6 6 5 3 4 4 4 4 5 5 5 5 6 6 6 6 6 6 6 7 6 6 6 6 6 5 5 5 5 4 4
27 25 25 24 23 21 19 18 16 14 12 12 11 8 7 6 4 4 4 4 4 5 5 4 4 5 5 5 5 6 6 5 6 6 5 5 5 4 4 4 4 4 4 4
28 27 27 26 25 23 22 19 17 16 15 15 13 11 9 8 6 5 4 4 4 4 4 4 4 4 4 4 4 4 4 4 4 5 4 4 4 4 3 3 4 4 4 5
29 29 29 28 27 25 24 22 21 18 16 16 16 14 11 10 8 7 6 5 5 4 4 4 5 4 4 4 4 4 4 4 5 5 4 4 4 4 4 4 4 4 5 5
29 29 30 28 28 27 26 25 23 21 19 18 17 15 13 12 10 9 8 7 6 6 5 5 5 4 4 4 4 4 4 5 5 5 5 5 4 5 5 5 5 5 5 6
29 29 30 28 28 29 28 26 25 24 22 20 19 17 15 14 12 11 10 10 9 8 7 7 6 6 5 5 5 5 5 6 6 6 6 6 6 6 6 6 6 6 6 7
30 30 30 30 31 29 29 28 27 26 24 21 20 19 18 16 15 14 13 12 11 11 10 9 9 8 8 7 6 6 6 7 7 7 7 7 7 7 7 7 7 7 7 8
30 30 30 31 31 31 30 29 28 27 27 25 23 21 20 19 17 16 16 15 14 14 13 12 11 11 10 10 9 8 8 8 9 9 8 8 7 7 8 8 8 8 8 8
30 31 31 31 32 32 32 30 29 28 28 27 25 23 22 22 20 19 18 17 16 15 14 14 13 12 12 12 11 10 10 10 10 9 9 9 8 8 8 9 9 9 9 10
31 32 32 30 30 30 31 30 30 29 29 28 28 25 24 23 23 21 20 18 17 17 16 15 15 15 15 14 14 13 12 11 11 10 10 10 9 8 9 10 10 10 11 11
33 33 33 32 32 31 30 30 31 31 30 30 29 28 27 26 25 23 21 20 19 19 18 17 17 17 17 16 15 15 14 13 12 12 11 11 11 10 10 10 11 12 12 13
35 34 33 32 32 32 32 32 32 32 31 31 30 29 28 27 26 24 23 22 21 21 20 19 19 18 18 18 17 16 15 15 15 14 13 13 13 12 11 12 13 14 14 14
34 34 34 33 33 33 34 33 32 32 32 31 30 29 28 27 27 26 25 23 23 23 23 22 21 21 20 20 18 18 18 17 17 16 16 15 15 14 13 14 14 14 15 16
34 34 33 33 33 35 33 32 32 32 32 32 31 30 29 28 27 27 27 26 25 25 24 23 23 23 22 22 21 20 19 19 18 18 18 18 18 16 16 16 16 16 17 17
34 34 33 32 33 34 33 32 31 32 32 32 32 31 30 29 28 28 28 27 27 26 25 25 25 25 24 23 22 22 22 20 20 20 21 21 20 19 19 18 18 18 19 19
34 34 33 33 33 33 32 31 31 31 32 31 32 32 31 30 29 29 28 28 28 27 27 26 26 26 26 25 24 23 22 22 22 23 23 23 22 21 21 21 21 21 21 21
35 35 34 33 33 32 32 32 31 31 31 30 31 31 31 31 30 29 29 28 28 28 28 28 28 27 27 26 26 25 25 25 25 25 25 25 24 24 24 23 23 23 23 23
36 36 36 34 34 33 34 33 33 32 30 30 30 30 30 30 29 29 29 29 29 30 30 29 29 29 28 28 28 28 27 27 27 27 26 26 26 26 25 25 25 25 25 25
36 36 37 37 36 35 35 34 32 31 30 30 29 29 28 29 29 30 30 30 30 30 30 29 29 30 29 29 29 29 29 29 29 28 27 26 26 26 26 27 27 27 27 26
36 36 37 37 37 37 36 34 32 30 30 29 29 29 29 29 30 30 30 31 32 32 32 31 30 31 31 31 30 30 29 29 29 29 28 27 28 28 29 29 28 27 27 27
35 35 36 37 37 36 36 35 33 31 30 30 30 30 30 30 31 31 31 31 31 30 30 31 31 32 32 31 32 31 30 30 30 29 29 29 30 30 29 29 30 29 29 30
35 35 35 36 36 36 34 34 33 32 31 31 31 31 31 31 31 30 31 31 31 30 30 31 31 32 32 32 32 32 32 32 31 30 31 31 32 31 30 30 29 29 31 31

GEFSCGP_500_meanwind_282.txt.gz
Wind_Speed
14 13 11 9 8 6 6 5 5 5 4 4 5 7 7 7 8 9 9 10 10 10 10 11 11 12 12 12 12 11 11 10 9 8 8 8 7 7 6 6 6 5 5 5
16 16 12 11 9 9 9 7 7 6 5 4 5 6 7 6 7 8 8 8 9 9 9 10 10 10 11 11 11 11 10 10 9 8 8 8 8 7 7 6 6 6 5 5
18 15 13 13 12 12 12 10 9 9 6 5 7 7 8 7 7 8 8 8 8 8 8 8 9 10 10 10 10 11 10 9 8 8 8 7 8 7 6 6 6 6 6 5
20 18 17 16 15 14 13 11 10 9 8 6 6 8 10 9 7 8 7 7 7 8 8 7 7 8 9 9 10 10 10 9 8 8 8 7 7 7 6 6 5 6 6 5
21 20 20 20 18 16 15 12 11 10 9 9 8 9 10 10 9 8 8 6 7 7 7 7 6 7 8 8 9 10 10 9 9 8 8 8 8 7 7 6 6 6 6 6
23 20 20 20 19 17 16 14 13 11 11 12 10 11 11 9 9 8 8 7 6 6 6 7 7 6 7 7 8 9 9 9 9 9 8 8 8 8 7 7 7 6 5 5
22 22 21 21 19 18 18 16 14 13 15 14 11 12 13 12 11 9 8 8 7 6 6 7 7 6 6 6 7 8 8 9 9 8 8 8 8 8 8 7 7 7 7 6
22 22 22 22 21 21 20 19 18 16 14 12 11 12 13 14 13 12 10 10 8 8 8 8 8 7 6 6 6 7 7 8 8 8 8 8 8 8 8 8 8 7 7 8
23 23 21 22 21 22 22 21 18 17 15 15 14 13 17 17 14 13 13 12 10 10 9 9 8 8 7 7 7 7 7 8 8 9 9 9 8 8 8 8 8 8 8 8
24 24 23 23 22 23 23 21 19 19 18 18 16 16 16 17 16 15 15 15 12 11 11 11 10 9 9 8 8 8 7 8 8 9 8 8 9 8 8 9 9 9 9 8
26 25 24 24 24 23 23 22 22 22 20 19 18 17 16 17 17 17 16 17 15 14 13 13 13 11 11 10 10 9 9 9 9 9 9 9 9 9 9 9 9 9 9 9
27 26 26 25 24 23 24 24 23 24 23 22 20 20 17 16 17 18 19 18 17 15 15 15 15 13 12 12 12 11 10 10 10 10 10 10 10 10 10 10 10 10 10 10
29 28 27 25 24 25 25 26 25 25 23 22 21 22 19 20 21 20 20 19 18 18 18 17 16 16 14 14 13 13 12 11 11 11 11 11 11 11 11 11 11 11 11 11
32 31 30 28 27 26 26 26 25 26 25 23 23 23 22 24 22 21 20 20 20 19 19 20 19 17 16 15 15 14 14 13 13 13 12 12 13 12 12 12 12 11 12 13
33 33 32 31 29 28 27 27 26 27 27 26 25 25 23 21 23 23 23 23 23 21 21 21 19 17 17 17 16 16 15 15 15 14 14 14 13 13 13 13 13 13 14 14
34 34 33 33 32 30 29 28 28 27 27 27 26 26 23 23 24 24 26 26 25 23 22 22 21 20 19 18 17 17 16 16 16 16 15 15 14 14 14 14 14 15 15 15
35 35 35 33 32 33 33 31 30 28 27 28 28 27 25 26 26 27 28 28 27 26 25 24 22 21 20 20 19 19 18 18 17 17 17 16 15 15 15 15 16 16 17 17
35 35 35 34 33 35 34 31 30 29 28 28 29 29 29 29 29 29 30 29 29 28 27 26 23 22 22 22 21 21 20 19 19 19 19 18 18 17 17 18 18 19 18 19
34 35 35 34 35 35 34 32 30 31 32 30 30 30 28 28 29 30 30 30 29 29 28 27 25 24 24 23 23 22 21 21 21 21 21 20 20 19 18 19 20 20 21 20
35 36 36 36 36 35 33 32 30 31 34 32 31 30 29 30 30 31 31 30 30 29 28 28 27 27 26 24 24 24 24 23 23 22 22 22 21 20 20 21 21 22 23 23
36 37 37 37 37 35 33 31 30 31 33 32 32 31 31 31 32 32 32 31 30 30 30 30 29 29 28 27 26 26 26 26 24 23 24 24 23 22 22 23 24 24 25 24
36 36 37 37 37 37 35 32 32 32 33 32 32 32 32 31 32 32 33 32 31 31 32 31 31 31 30 29 28 28 28 27 25 25 25 25 24 24 24 25 26 26 26 26
35 34 34 36 36 34 34 35 35 34 34 33 33 32 33 33 33 33 33 34 34 33 33 33 32 32 32 31 31 30 29 29 28 27 27 27 27 27 27 27 27 27 27 28
36 36 36 36 38 38 37 37 36 35 34 34 33 33 33 33 34 34 34 33 34 34 34 34 33 33 33 32 32 31 31 30 30 30 29 29 29 29 28 29 29 29 29 30
34 35 37 38 38 39 39 37 36 36 36 35 34 34 34 34 34 34 34 33 33 35 35 35 35 34 34 33 33 32 32 32 32 31 31 31 31 30 31 30 31 31 31 31
34 35 35 36 36 38 38 36 35 36 37 36 35 35 35 35 36 33 33 33 33 34 34 34 36 35 34 34 34 33 33 33 34 33 32 32 32 32 32 31 32 32 32 32

GEFSCGP_500_meanwind_288.txt.gz
Wind_Speed
17 15 13 11 8 5 2 0 1 2 3 4 5 7 8 9 10 10 11 12 12 12 11 11 12 12 13 13 13 14 14 13 11 10 10 10 10 9 9 9 8 7 6 5
19 17 14 13 11 9 5 4 3 3 5 5 5 6 6 7 8 8 9 9 11 10 10 10 10 11 12 12 13 13 13 13 12 10 10 10 9 9 8 8 8 8 7 6
19 18 17 15 13 12 9 6 5 4 4 5 5 6 6 6 7 7 8 8 9 9 10 10 10 10 11 11 12 12 12 12 12 11 10 10 9 8 8 8 7 7 7 8
21 20 20 18 16 14 12 9 8 7 7 7 7 7 5 5 6 5 6 6 7 8 8 9 9 9 10 9 10 11 11 11 11 11 10 9 9 8 8 7 7 7 7 6
22 22 22 21 18 15 13 12 13 12 10 9 8 8 7 6 4 4 4 5 5 6 7 7 8 8 9 9 9 10 10 11 11 11 10 9 8 7 7 6 6 6 5 5
22 23 22 21 20 18 15 15 16 16 14 12 8 8 7 6 5 5 5 5 5 6 6 6 7 7 7 7 8 8 9 10 10 10 9 9 8 7 6 6 5 5 5 5
23 23 21 20 20 19 18 18 19 18 16 13 11 12 8 6 6 5 5 4 5 5 5 5 5 6 6 6 6 7 8 9 9 9 9 9 8 7 7 6 5 4 4 5
23 23 22 21 20 20 19 20 21 18 16 14 13 14 10 7 6 6 7 6 5 4 4 4 4 5 5 5 5 6 6 7 8 8 8 8 7 7 7 7 6 5 5 5
24 23 23 23 22 22 21 21 21 20 17 16 15 14 12 11 9 8 8 7 6 5 4 4 4 5 5 5 5 5 5 6 7 8 7 7 7 7 7 6 6 6 6 5
25 25 25 24 23 23 23 23 23 22 21 19 17 16 14 13 12 10 9 8 7 6 6 5 5 5 5 5 5 5 5 6 7 7 7 7 7 7 7 7 7 7 7 6
25 25 24 26 26 25 24 25 25 24 23 21 19 17 16 15 12 11 11 10 10 9 9 8 7 7 6 6 6 6 6 6 7 7 8 8 7 8 7 7 7 7 7 7
26 26 26 27 26 26 27 27 27 27 25 23 22 20 17 15 14 13 14 13 12 11 11 10 10 9 8 8 7 7 7 7 7 8 8 8 8 8 8 8 8 8 8 8
26 27 27 28 28 28 28 27 28 28 27 26 25 22 19 16 15 15 15 15 14 14 13 12 11 10 9 8 8 8 8 8 8 8 9 9 8 8 8 8 8 8 8 8
28 29 29 30 30 30 29 28 28 30 30 27 26 24 22 19 17 16 15 15 16 16 15 14 12 11 10 10 10 10 9 10 10 9 9 9 9 9 9 9 8 8 8 8
30 30 30 31 31 32 32 30 30 30 30 29 27 26 24 22 19 18 18 17 16 17 16 15 14 13 12 12 12 12 11 11 11 11 10 10 10 10 10 10 10 10 10 10
32 32 32 32 31 32 33 32 32 31 30 30 29 27 25 25 23 22 21 20 19 19 17 17 16 14 14 15 15 14 13 13 13 11 11 11 11 11 11 11 11 10 11 11
35 34 34 34 33 33 34 32 33 33 32 31 32 31 29 28 27 25 24 23 22 22 21 20 19 17 16 17 17 17 16 15 14 14 13 12 12 12 12 12 12 12 13 13
35 36 36 35 34 36 34 34 34 34 33 33 34 33 31 30 29 29 28 27 26 24 23 23 22 21 20 20 20 19 18 17 17 16 15 13 13 13 14 14 14 14 15 15
35 36 36 36 36 36 35 34 35 35 35 35 34 34 32 31 31 31 30 29 29 27 25 25 24 23 22 22 22 21 20 20 19 18 17 16 15 15 15 16 16 16 17 17
36 36 36 36 37 37 35 34 35 37 37 36 36 35 34 33 33 32 31 31 30 29 27 26 25 25 24 25 24 24 23 22 21 20 20 19 18 17 17 18 18 18 18 18
36 35 35 35 37 38 36 35 37 39 38 37 37 37 36 34 34 34 34 32 31 30 29 27 27 27 26 27 26 25 25 25 23 23 22 21 21 20 20 20 20 20 20 20
36 36 35 35 37 36 34 36 37 37 37 37 37 37 37 36 35 35 34 33 32 32 31 31 30 29 29 29 28 27 27 27 26 25 25 24 23 23 22 22 22 22 22 22
36 36 36 35 35 34 33 34 35 35 36 37 37 37 37 36 36 34 33 34 34 33 33 32 32 32 32 32 30 28 28 28 28 27 26 26 25 25 25 24 24 24 24 24
35 36 36 36 35 34 34 33 35 35 35 35 36 37 38 37 36 36 35 35 34 33 33 33 33 33 33 32 32 31 31 30 30 29 28 28 27 27 27 26 27 27 26 26
34 35 36 36 35 35 35 35 35 35 34 34 34 35 36 37 37 36 35 35 35 34 33 33 32 33 33 33 32 32 32 32 32 31 31 30 30 29 29 29 29 29 29 28
34 35 36 36 35 35 35 36 35 35 35 34 34 35 36 36 37 36 35 34 33 33 33 33 33 34 34 34 33 33 33 34 34 34 33 33 32 32 31 32 32 31 31 31

GEFSCGP_500_meanwind_294.txt.gz
Wind_Speed
16 15 14 12 10 7 5 3 1 1 1 2 3 5 7 7 8 8 9 9 10 10 10 10 10 10 11 11 11 11 10 9 9 9 9 9 8 8 7 7 7 6 5 4
18 16 16 15 13 10 8 6 4 3 2 1 1 3 4 5 5 6 7 7 8 9 9 9 10 10 10 10 10 10 10 10 9 8 8 8 8 8 7 7 7 6 5 5
19 18 18 18 16 13 11 9 7 6 6 4 3 2 3 4 3 4 5 5 6 6 7 8 8 9 9 9 9 9 10 9 9 8 8 8 8 7 7 6 6 5 5 4
21 20 21 20 19 16 14 12 11 9 9 7 6 4 4 4 4 4 3 3 4 5 5 6 7 7 7 8 8 8 8 9 8 8 7 7 7 7 6 5 5 4 4 4
22 22 22 22 20 19 17 15 14 13 11 10 8 7 6 5 5 4 3 2 2 3 4 4 5 5 6 6 6 7 7 9 8 8 6 6 6 6 6 5 5 4 4 4
23 23 23 23 22 21 20 18 17 16 14 13 11 10 7 6 6 5 4 4 3 2 2 2 3 4 5 5 5 5 6 7 8 8 7 6 5 5 5 5 5 4 4 4
24 24 24 24 24 23 21 20 18 18 17 16 13 13 9 8 7 6 5 5 4 3 2 1 2 3 4 4 4 4 6 6 7 8 7 7 5 4 4 4 4 4 4 4
24 24 25 26 25 24 23 22 21 20 18 17 16 15 11 9 8 7 6 6 5 4 3 2 2 1 2 3 3 3 4 5 6 6 7 7 6 5 4 3 3 3 3 4
24 23 24 26 25 26 26 24 22 22 21 21 19 17 13 11 11 10 8 7 6 5 5 4 3 2 2 2 2 2 3 4 5 5 6 6 6 5 4 3 3 4 4 5
24 24 24 24 26 27 27 25 25 24 24 23 22 19 15 13 12 11 10 8 8 7 7 6 5 4 4 3 3 3 3 4 5 5 5 6 5 5 5 5 5 5 6 7
25 25 25 26 27 27 28 27 26 25 25 25 24 21 17 15 14 12 11 10 10 9 9 9 8 7 6 6 5 5 5 5 5 5 6 6 5 5 5 6 6 6 7 8
26 26 26 27 27 28 28 27 27 27 26 25 25 22 19 17 16 15 14 13 12 12 12 12 11 10 8 8 7 6 6 6 6 6 6 6 6 6 7 7 7 7 8 7
28 27 27 28 28 28 28 27 28 27 27 27 27 24 21 20 19 17 16 15 15 14 13 14 13 13 11 10 9 8 8 8 8 8 7 8 7 7 8 8 8 8 8 8
29 29 29 29 28 29 29 28 28 28 28 28 27 25 23 21 20 19 18 17 17 16 16 16 16 16 14 12 11 11 10 10 9 9 9 10 9 9 9 9 9 9 9 9
31 30 30 30 29 30 30 30 30 30 29 30 28 27 25 23 22 20 20 19 19 18 17 18 17 17 16 15 14 13 12 12 11 11 11 11 11 11 10 10 11 11 11 11
32 32 31 31 31 31 31 31 31 31 31 31 30 28 26 25 23 23 22 21 20 19 18 18 19 19 17 17 16 15 14 14 14 13 13 12 12 12 12 12 12 12 12 12
33 33 33 32 31 32 33 31 32 32 32 32 32 30 29 28 26 24 24 23 22 21 20 20 20 20 19 18 18 17 16 16 15 15 15 14 14 14 13 14 14 13 14 14
34 34 34 33 33 34 32 32 33 33 33 32 32 32 31 30 28 27 27 27 25 24 23 22 21 21 20 20 19 18 18 18 17 17 17 17 17 16 16 16 15 15 15 15
34 34 35 35 35 35 34 33 34 34 34 32 32 32 33 32 31 30 28 28 27 26 25 24 24 23 22 22 22 21 20 20 20 19 19 19 19 19 18 18 18 17 17 16
35 35 36 36 36 36 33 33 34 34 34 33 33 33 33 34 33 30 30 30 29 29 28 28 27 26 25 25 25 24 23 23 22 21 21 21 21 21 21 21 20 20 20 19
35 36 36 36 36 36 34 34 33 34 32 33 33 33 34 34 33 31 31 31 31 31 31 31 29 29 28 28 27 27 26 26 25 24 24 23 23 24 24 24 23 23 22 21
36 36 36 36 36 36 35 35 35 34 33 32 33 33 34 34 33 32 32 32 32 32 32 32 32 31 31 30 30 29 29 29 28 27 26 26 26 27 27 26 26 25 25 23
37 37 37 36 36 35 35 35 34 34 32 32 32 33 34 34 33 33 33 33 34 32 32 32 33 33 33 32 32 32 31 31 31 30 29 29 28 29 29 29 28 27 26 25
37 38 38 37 36 35 35 35 34 33 33 32 32 33 34 33 32 33 34 35 35 34 33 33 33 34 34 34 34 34 33 33 32 32 31 30 31 31 31 31 29 29 28 28
35 36 36 36 35 35 34 34 34 33 32 31 31 31 32 33 32 32 33 34 34 34 34 34 34 34 35 36 35 35 34 34 34 34 33 32 33 33 32 32 31 30 30 30
34 35 35 35 34 34 34 34 34 33 32 31 31 31 31 32 32 32 32 33 34 35 35 36 35 35 35 35 36 36 36 35 35 35 34 34 35 34 33 32 31 31 30 30